sat.trackr.live / text

‹ back to catalog

STARLINK-11338 [DTC]

NORAD 61534 · 2024-184C

PAYLOAD ACTIVE UNKNOWN

§ Identity

Operator
Country
US
Launch date
2024-10-15
Launch site
AFWTR
Launch vehicle
Mass (kg)
RCS (m²)

Purposes: comms

External: N2YO · Heavens-Above · Gunter

§ Orbital elements

Epoch: 2026-09-21T13:54:17.088480Z

Period
91.74 min
Inclination
53.1596°
Eccentricity
0.0000965
Mean motion
15.69703665 rev/d
Perigee alt
359.1 km
Apogee alt
360.4 km
Semi-major
6,737.9 km
B*
-4.1752e-6
RAAN
350.6272°
Arg perigee
67.5832°
Mean anomaly
292.5288°
Rev number
11,118

§ Raw data

STARLINK-11338 [DTC]1 61534U 24184C   26264.57936445 -.00001094  00000+0 -41752-5 0  99902 61534  53.1596 350.6272 0000965  67.5832 292.5288 15.69703665111182

JSON: /api/v1/satellites/61534 · /tle

For live sub-satellite position, see the globe view (requires WebGL).

§ Visibility from observer

Set your observer location to see the next 7 days of passes ≥ 10°. The values pass through the URL so the page stays shareable.

No JS? Fill the form by hand. The geolocation button needs JavaScript.